When you browse on this site, cookies collect data to enhance your experience and personalize the content and advertising you see.
Visit our Privacy Policy to learn more. By continuing to use the site, you agree to this use of cookies and data.
  • In Germany
  • List of Countries
  • For 7 days
  • Water Temperature
  • Satellite Maps
  • Weather Map
  • Weather Widgets
  • user-avatar
    Login

    Hourly Weather Konstantyna

    Today, 23 May, Thursday

    Time Temperature Precipitation Wind Pressure Humidity
    00:00 +12°C° 0 mm 0 mps 711 mmHg 86%
    01:00 +12°C° 0 mm 0 mps 711 mmHg 86%
    02:00 +11°C° 0 mm 0 mps 711 mmHg 85%
    03:00 +11°C° 0 mm 0 mps 710 mmHg 85%
    04:00 +12°C° 0 mm 0 mps 711 mmHg 79%
    05:00 +14°C° 0 mm 0 mps 711 mmHg 74%
    06:00 +15°C° 0 mm 0 mps 711 mmHg 68%
    07:00 +17°C° 0 mm 0 mps 712 mmHg 60%
    08:00 +19°C° 0 mm 0 mps 712 mmHg 52%
    09:00 +22°C° 0 mm 1 mps 713 mmHg 43%
    10:00 +24°C° 0 mm 1 mps 713 mmHg 39%
    11:00 +25°C° 0 mm 1 mps 713 mmHg 35%
    12:00 +26°C° 0 mm 1 mps 713 mmHg 32%
    13:00 +26°C° 0 mm 2 mps 712 mmHg 33%
    14:00 +26°C° 0 mm 3 mps 712 mmHg 34%
    15:00 +26°C° 0 mm 4 mps 711 mmHg 35%
    16:00 +24°C° 0 mm 3 mps 711 mmHg 43%
    17:00 +22°C° 0 mm 3 mps 711 mmHg 50%
    18:00 +20°C° 0 mm 3 mps 710 mmHg 58%
    19:00 +19°C° 0 mm 2 mps 710 mmHg 60%
    20:00 +18°C° 0 mm 1 mps 710 mmHg 63%
    21:00 +16°C° 0 mm 1 mps 710 mmHg 66%
    22:00 +16°C° 0 mm 1 mps 710 mmHg 66%
    23:00 +15°C° 0 mm 1 mps 710 mmHg 65%

    Tomorrow, 24 May, Friday

    Time Temperature Precipitation Wind Pressure Humidity
    00:00 +15°C° 0 mm 1 mps 709 mmHg 65%
    01:00 +15°C° 0 mm 1 mps 709 mmHg 64%
    02:00 +15°C° 0 mm 1 mps 709 mmHg 63%
    03:00 +15°C° 0 mm 1 mps 708 mmHg 61%
    04:00 +16°C° 0.1 mm 1 mps 708 mmHg 59%
    05:00 +18°C° 0.1 mm 1 mps 708 mmHg 58%
    06:00 +20°C° 0.1 mm 1 mps 708 mmHg 56%
    07:00 +21°C° 0 mm 2 mps 709 mmHg 51%
    08:00 +24°C° 0 mm 2 mps 709 mmHg 47%
    09:00 +27°C° 0 mm 3 mps 709 mmHg 42%
    10:00 +27°C° 0 mm 4 mps 709 mmHg 42%
    11:00 +28°C° 0 mm 4 mps 708 mmHg 41%
    12:00 +29°C° 0 mm 5 mps 708 mmHg 41%
    13:00 +29°C° 0 mm 5 mps 708 mmHg 41%
    14:00 +29°C° 0 mm 4 mps 707 mmHg 41%
    15:00 +29°C° 0 mm 4 mps 707 mmHg 41%
    16:00 +27°C° 0.6 mm 3 mps 706 mmHg 51%
    17:00 +25°C° 0.6 mm 3 mps 706 mmHg 61%
    18:00 +23°C° 0.6 mm 2 mps 706 mmHg 71%
    19:00 +21°C° 1 mm 2 mps 706 mmHg 74%
    20:00 +20°C° 1 mm 2 mps 706 mmHg 77%
    21:00 +19°C° 1 mm 2 mps 706 mmHg 80%
    22:00 +19°C° 0.2 mm 2 mps 706 mmHg 82%
    23:00 +18°C° 0.2 mm 2 mps 705 mmHg 83%

    Day after tomorrow, 25 May, Saturday

    Time Temperature Precipitation Wind Pressure Humidity
    00:00 +19°C° 0.2 mm 1 mps 705 mmHg 85%
    01:00 +19°C° 0.1 mm 1 mps 705 mmHg 86%
    02:00 +19°C° 0.1 mm 1 mps 704 mmHg 88%
    03:00 +16°C° 0.1 mm 0 mps 704 mmHg 89%
    04:00 +18°C° 1.2 mm 1 mps 704 mmHg 89%
    05:00 +18°C° 1.2 mm 1 mps 704 mmHg 88%
    06:00 +19°C° 1.2 mm 1 mps 704 mmHg 88%
    07:00 +18°C° 0.7 mm 2 mps 705 mmHg 86%
    08:00 +18°C° 0.7 mm 2 mps 705 mmHg 84%
    09:00 +19°C° 0.7 mm 3 mps 705 mmHg 82%
    10:00 +19°C° 0.3 mm 3 mps 705 mmHg 78%
    11:00 +20°C° 0.3 mm 4 mps 705 mmHg 73%
    12:00 +20°C° 0.3 mm 4 mps 706 mmHg 69%
    13:00 +20°C° 0.3 mm 5 mps 705 mmHg 69%
    14:00 +20°C° 0.3 mm 5 mps 705 mmHg 70%
    15:00 +19°C° 0.3 mm 6 mps 705 mmHg 71%
    16:00 +17°C° 0.6 mm 5 mps 705 mmHg 76%
    17:00 +16°C° 0.6 mm 5 mps 705 mmHg 81%
    18:00 +15°C° 0.6 mm 4 mps 705 mmHg 85%
    19:00 +14°C° 0.3 mm 3 mps 705 mmHg 86%
    20:00 +14°C° 0.3 mm 3 mps 706 mmHg 87%
    21:00 +13°C° 0.3 mm 3 mps 706 mmHg 88%
    22:00 +14°C° 0 mm 2 mps 706 mmHg 89%
    23:00 +14°C° 0 mm 2 mps 706 mmHg 90%

    26 May, Sunday

    Time Temperature Precipitation Wind Pressure Humidity
    00:00 +13°C° 0 mm 2 mps 705 mmHg 91%
    01:00 +13°C° 0.1 mm 2 mps 705 mmHg 91%
    02:00 +13°C° 0.1 mm 2 mps 705 mmHg 91%
    03:00 +13°C° 0.1 mm 2 mps 704 mmHg 91%
    04:00 +13°C° 0.1 mm 2 mps 705 mmHg 90%
    05:00 +13°C° 0.1 mm 2 mps 705 mmHg 89%
    06:00 +13°C° 0.1 mm 2 mps 705 mmHg 89%
    07:00 +13°C° 0.1 mm 2 mps 705 mmHg 86%
    08:00 +14°C° 0.1 mm 2 mps 706 mmHg 83%
    09:00 +13°C° 0.1 mm 3 mps 706 mmHg 80%
    10:00 +14°C° 0.2 mm 3 mps 706 mmHg 79%
    11:00 +14°C° 0.2 mm 3 mps 706 mmHg 77%
    12:00 +15°C° 0.2 mm 4 mps 706 mmHg 76%
    13:00 +16°C° 0 mm 5 mps 706 mmHg 71%
    14:00 +17°C° 0 mm 6 mps 706 mmHg 65%
    15:00 +19°C° 0 mm 6 mps 706 mmHg 60%
    16:00 +17°C° 0 mm 6 mps 706 mmHg 65%
    17:00 +16°C° 0 mm 5 mps 706 mmHg 69%
    18:00 +15°C° 0 mm 4 mps 706 mmHg 74%
    19:00 +14°C° 0 mm 3 mps 706 mmHg 80%
    20:00 +13°C° 0 mm 2 mps 707 mmHg 85%
    21:00 +12°C° 0 mm 2 mps 707 mmHg 91%
    22:00 +12°C° 0 mm 2 mps 707 mmHg 91%
    23:00 +12°C° 0 mm 2 mps 707 mmHg 91%

    27 May, Monday

    Time Temperature Precipitation Wind Pressure Humidity
    00:00 +12°C° 0 mm 2 mps 706 mmHg 91%
    01:00 +12°C° 0 mm 2 mps 706 mmHg 92%
    02:00 +12°C° 0 mm 2 mps 706 mmHg 92%
    03:00 +12°C° 0 mm 2 mps 706 mmHg 93%
    04:00 +12°C° 0.1 mm 2 mps 706 mmHg 90%
    05:00 +12°C° 0.1 mm 3 mps 707 mmHg 87%
    06:00 +13°C° 0.1 mm 3 mps 707 mmHg 84%
    07:00 +14°C° 0.1 mm 3 mps 707 mmHg 80%
    08:00 +15°C° 0.1 mm 4 mps 708 mmHg 77%
    09:00 +16°C° 0.1 mm 5 mps 708 mmHg 74%
    10:00 +17°C° 0 mm 5 mps 708 mmHg 68%
    11:00 +19°C° 0 mm 5 mps 708 mmHg 63%
    12:00 +20°C° 0 mm 5 mps 709 mmHg 58%
    13:00 +21°C° 0 mm 5 mps 709 mmHg 56%
    14:00 +21°C° 0 mm 5 mps 708 mmHg 54%
    15:00 +21°C° 0 mm 5 mps 708 mmHg 52%
    16:00 +20°C° 0 mm 4 mps 708 mmHg 56%
    17:00 +19°C° 0 mm 3 mps 708 mmHg 59%
    18:00 +19°C° 0 mm 2 mps 708 mmHg 63%
    19:00 +17°C° 0 mm 2 mps 708 mmHg 68%
    20:00 +16°C° 0 mm 1 mps 709 mmHg 73%
    21:00 +14°C° 0 mm 1 mps 709 mmHg 78%
    22:00 +14°C° 0 mm 1 mps 709 mmHg 77%
    23:00 +14°C° 0 mm 1 mps 708 mmHg 76%

    28 May, Tuesday

    Time Temperature Precipitation Wind Pressure Humidity
    00:00 +14°C° 0 mm 1 mps 708 mmHg 75%
    01:00 +14°C° 0 mm 1 mps 708 mmHg 75%
    02:00 +13°C° 0 mm 1 mps 708 mmHg 75%
    03:00 +13°C° 0 mm 1 mps 707 mmHg 75%
    04:00 +15°C° 0 mm 1 mps 708 mmHg 71%
    05:00 +16°C° 0 mm 1 mps 708 mmHg 66%
    06:00 +18°C° 0 mm 1 mps 709 mmHg 62%
    07:00 +19°C° 0 mm 2 mps 709 mmHg 56%
    08:00 +21°C° 0 mm 2 mps 709 mmHg 49%
    09:00 +25°C° 0 mm 3 mps 709 mmHg 43%
    10:00 +26°C° 0 mm 4 mps 709 mmHg 39%
    11:00 +27°C° 0 mm 4 mps 709 mmHg 35%
    12:00 +29°C° 0 mm 5 mps 709 mmHg 30%
    13:00 +28°C° 0 mm 5 mps 709 mmHg 34%
    14:00 +27°C° 0 mm 4 mps 708 mmHg 39%
    15:00 +27°C° 0 mm 3 mps 708 mmHg 43%
    16:00 +26°C° 0 mm 3 mps 708 mmHg 49%
    17:00 +25°C° 0 mm 2 mps 708 mmHg 55%
    18:00 +24°C° 0 mm 2 mps 708 mmHg 61%
    19:00 +21°C° 0 mm 2 mps 708 mmHg 68%
    20:00 +20°C° 0 mm 1 mps 708 mmHg 74%
    21:00 +19°C° 0 mm 1 mps 708 mmHg 81%
    22:00 +18°C° 0 mm 1 mps 708 mmHg 83%
    23:00 +18°C° 0 mm 1 mps 708 mmHg 84%
    Show more